RH
33 27 22 32 44 60 55 48 43 41 38 26 23 22 22 23 18 23 49 55 55 59 67 75 89 91 92 88 95 95 89 78 74 73 70 73 67 71 82 75 74 80 76 71 73 70 69 69 68
32 24 25 52 56 59 52 45 42 35 35 38 23 22 21 20 42 48 56 55 57 60 69 73 85 90 95 82 88 94 89 83 75 75 74 83 80 68 72 74 74 77 75 78 85 76 71 73 73
30 22 36 57 67 59 51 42 44 36 31 30 19 21 21 21 33 45 46 51 58 64 68 69 80 87 90 85 84 94 88 83 78 75 78 86 88 74 68 71 81 80 80 82 87 82 77 78 76
27 25 34 40 44 44 45 37 27 28 28 28 18 21 26 27 35 40 45 52 56 64 66 65 71 85 96 90 90 94 87 85 78 78 84 76 85 81 71 80 82 84 86 86 85 89 86 82 82
26 33 34 37 36 32 32 27 23 31 32 30 19 19 27 33 44 41 47 52 52 63 66 66 69 86 96 97 98 95 88 83 78 75 78 77 78 70 76 82 79 82 86 85 86 82 87 89 84
42 35 38 34 31 29 28 24 29 33 32 32 20 25 26 37 49 48 50 52 59 59 65 66 71 86 91 97 98 95 85 83 80 78 76 71 70 80 75 83 85 85 86 88 89 87 83 83 88
41 45 44 36 38 33 24 30 28 33 34 26 22 24 25 40 45 51 52 59 63 66 68 66 77 86 89 91 93 90 88 84 82 78 78 73 73 76 86 88 90 91 88 87 97 95 93 88 85
46 48 45 43 37 30 22 35 28 30 31 25 27 26 23 35 47 51 54 60 66 71 72 70 77 86 88 90 90 89 87 83 76 79 80 78 75 75 79 80 84 89 91 86 85 96 96 94 90
39 53 58 44 36 29 29 39 32 27 30 28 26 31 35 44 49 56 61 63 70 74 75 76 77 84 90 91 92 88 88 85 80 75 77 78 76 72 64 66 72 75 77 92 92 90 95 93 90
48 62 54 41 30 30 36 40 36 32 32 28 25 33 44 44 58 63 66 66 65 70 72 76 79 82 88 89 91 90 88 90 83 69 77 77 75 76 76 75 72 74 76 80 89 94 91 89 93
50 57 47 41 36 34 43 44 35 30 34 29 26 26 35 54 62 68 61 57 56 57 67 70 72 81 87 85 85 86 86 89 84 75 68 77 77 74 76 78 79 75 74 73 81 85 84 86 86
51 47 43 41 38 40 45 38 38 34 32 27 28 28 32 54 65 68 66 61 58 56 55 62 67 77 80 80 81 76 79 78 74 71 64 64 70 74 74 75 73 72 70 70 75 78 81 83 81
57 51 46 45 48 48 44 44 39 35 31 28 30 29 30 47 61 60 58 57 54 54 50 54 57 69 73 75 74 74 70 68 62 64 62 62 62 62 64 67 69 68 70 70 69 70 71 74 74
54 53 52 47 45 41 38 40 34 32 29 29 28 29 29 40 58 57 54 51 52 50 48 49 52 57 61 65 69 68 67 65 66 63 61 65 66 64 57 63 67 68 68 71 72 72 72 73 75
46 49 45 39 38 41 40 40 40 32 27 29 30 33 29 30 38 45 46 46 41 37 36 48 51 53 56 56 58 62 64 66 63 62 63 61 62 61 62 63 67 66 66 68 71 73 75 75 74
45 41 52 41 34 34 34 36 33 32 31 30 30 34 39 46 52 51 47 43 38 36 35 30 36 50 52 53 55 56 58 61 64 63 63 64 63 62 62 63 63 62 65 69 71 72 74 75 77
47 61 53 47 34 36 38 46 30 28 28 28 28 35 42 49 53 51 49 47 43 40 40 37 38 45 51 53 56 60 60 60 60 64 66 67 67 65 64 64 64 65 67 70 72 75 80 81 84
72 55 50 53 36 37 40 44 33 31 24 27 29 39 48 54 57 53 47 46 47 44 43 45 45 46 51 57 62 65 68 69 69 70 70 70 71 72 71 71 72 73 75 78 80 82 84 87 86
57 50 56 43 36 36 42 44 36 32 30 29 36 43 50 54 52 52 46 42 42 42 44 46 48 54 52 66 74 74 74 72 77 81 83 84 85 87 89 89 90 91 92 92 92 92 93 94 93
47 50 52 50 38 38 42 43 37 37 31 30 40 48 50 54 58 58 51 46 45 44 41 42 44 51 62 67 76 77 79 80 60 56 55 59 60 60 61 62 64 68 78 87 97 98 100 98 93
56 60 58 60 47 41 45 47 41 32 34 41 43 46 50 56 60 61 60 54 48 47 44 41 40 40 43 53 59 61 49 47 47 50 51 50 47 43 41 40 39 40 41 52 63 87 100 99 96
87 55 48 47 50 59 42 62 48 36 40 45 51 56 59 61 58 60 60 58 53 50 47 45 45 45 45 43 43 46 54 59 60 56 52 47 44 41 38 36 36 37 41 45 50 50 56 75 94
73 47 50 47 51 48 46 55 49 38 45 48 54 56 60 63 63 64 63 58 55 50 50 49 49 50 51 51 52 54 58 59 56 52 48 45 42 41 39 37 36 36 40 45 52 53 52 54 72
47 42 45 55 54 68 52 50 52 44 42 45 48 54 59 65 65 64 58 54 54 52 51 50 50 57 55 54 56 57 58 56 53 52 50 49 46 43 41 38 38 41 45 49 53 52 47 56 63
47 49 64 68 70 72 49 57 49 36 36 39 47 54 61 67 68 66 64 62 57 57 56 55 54 62 60 58 58 58 58 58 58 54 51 46 43 42 41 36 38 43 45 49 47 49 53 58 66
55 54 68 68 74 61 52 57 39 36 50 42 44 49 61 68 67 65 66 62 60 63 61 57 55 57 56 56 56 55 53 51 47 43 39 34 34 36 27 22 22 29 32 37 46 55 59 62 64
49 56 46 60 59 70 61 47 39 44 53 53 55 54 63 67 68 66 67 62 65 67 64 58 55 56 56 55 55 51 46 41 35 28 21 16 15 18 17 21 24 24 24 27 37 61 56 49 64
44 43 53 62 64 68 61 51 50 35 42 54 59 58 61 64 66 68 70 69 72 68 61 56 55 56 54 52 50 44 37 28 20 14 12 14 16 18 21 21 23 23 22 25 32 62 40 51 70
40 46 51 54 62 61 63 50 41 38 39 55 59 54 60 64 67 70 72 75 76 67 60 57 54 52 48 49 43 36 25 15 12 12 14 15 16 19 21 22 23 23 25 26 34 46 40 52 58
38 42 44 60 56 63 62 54 35 48 54 56 58 55 56 58 66 73 78 82 75 67 59 53 51 47 45 45 35 22 14 12 11 13 16 19 20 18 21 20 22 24 28 32 38 36 40 55 50
Wind_Speed
20 19 9 4 4 5 2 5 2 5 4 1 5 2 3 2 3 4 2 13 3 14 18 20 19 16 15 13 12 9 8 6 7 6 5 5 3 2 3 1 0 3 2 3 3 4 8 5 8
19 12 4 2 4 3 4 3 3 2 5 8 4 2 2 4 2 3 2 13 7 13 17 20 20 17 16 13 11 10 9 7 7 6 6 8 6 2 4 3 5 3 4 4 5 5 7 7 6
13 7 3 4 3 3 4 3 5 7 9 4 3 3 2 3 2 3 4 12 9 13 17 18 19 17 17 14 11 10 8 9 8 8 7 9 6 3 6 6 5 5 5 5 6 6 6 7 9
8 6 4 3 2 5 4 3 4 9 7 4 2 5 3 4 2 3 4 11 12 15 16 17 18 16 17 14 11 10 9 8 9 8 7 8 8 5 5 5 4 6 6 7 7 10 7 8 9
6 3 3 3 4 4 5 5 6 5 6 4 1 4 4 2 5 4 7 11 13 15 15 17 17 17 16 14 13 11 10 10 10 8 10 8 8 7 7 7 6 7 8 9 9 9 11 11 10
4 3 3 1 4 6 6 5 3 3 5 7 1 2 5 2 3 5 9 11 12 13 15 16 16 18 16 15 15 13 11 11 10 8 9 9 8 10 9 9 8 8 9 10 10 11 11 12 13
4 3 3 2 4 6 4 6 3 6 7 3 2 3 4 4 6 6 8 11 12 13 14 16 17 18 17 15 15 13 11 12 11 12 11 13 13 11 8 9 10 9 11 12 12 11 12 12 13
4 3 3 3 3 6 3 8 4 3 6 7 3 3 4 2 6 7 9 11 12 13 15 16 17 19 19 18 17 16 14 12 12 14 14 14 15 16 15 15 15 12 12 13 13 14 13 14 14
3 3 2 4 5 5 3 7 3 3 4 5 3 3 5 11 8 9 10 11 14 15 16 17 18 20 22 19 18 18 16 14 13 15 15 16 16 14 16 16 16 16 16 14 14 16 16 16 18
4 3 7 5 4 4 5 2 6 5 7 5 4 4 5 4 9 11 12 11 15 17 18 19 19 21 22 20 19 19 18 17 16 16 17 19 19 18 17 17 16 17 16 16 16 17 18 19 21
5 5 4 4 6 3 4 7 3 3 7 7 8 9 6 2 9 13 16 16 16 15 17 19 18 22 22 20 19 19 19 19 18 18 18 19 19 20 19 19 19 19 19 20 20 21 21 22 23
3 7 5 4 2 2 4 5 7 7 10 9 9 6 5 8 9 15 12 10 11 14 17 19 19 23 23 21 21 19 19 20 20 19 19 20 20 20 21 21 21 21 20 21 22 24 24 25 25
4 4 3 6 8 6 4 9 7 13 13 10 9 9 10 8 10 7 13 14 14 18 18 19 19 24 24 24 23 23 21 21 19 20 19 20 21 23 22 23 23 23 22 23 24 25 26 27 28
6 6 8 5 10 6 6 9 5 6 4 8 8 10 8 7 6 5 10 16 15 18 21 20 22 24 25 25 26 26 24 22 21 21 21 21 22 23 24 24 24 25 25 26 27 29 29 31 31
2 3 6 5 5 7 5 12 12 11 3 8 9 10 5 5 7 5 6 9 11 15 18 19 21 24 25 26 26 26 26 25 24 24 22 22 23 24 24 26 27 28 27 28 29 31 31 33 35
5 2 3 4 2 4 5 18 11 8 6 8 8 7 4 6 6 11 11 8 8 9 14 11 15 19 23 25 26 26 26 25 26 25 24 23 23 24 25 27 29 30 30 30 30 31 33 36 37
1 4 4 7 5 3 5 8 7 3 5 5 5 2 3 6 9 16 14 13 10 8 14 14 5 11 16 19 22 25 24 24 24 25 26 25 25 25 25 28 30 31 32 32 32 34 32 33 32
6 4 3 6 3 2 6 14 18 6 1 4 3 3 4 7 7 12 16 16 17 15 16 17 15 5 4 10 14 17 20 22 22 23 23 24 24 24 24 26 28 29 30 32 32 32 31 30 33
6 4 5 4 4 3 7 8 15 8 5 5 5 4 3 6 3 12 18 21 22 22 21 24 25 19 7 3 4 7 10 13 13 12 12 12 13 14 15 17 19 21 23 26 27 26 27 28 28
3 4 4 7 1 3 8 10 12 8 6 4 8 6 4 4 6 9 17 21 22 24 28 29 29 26 20 12 8 5 8 13 16 15 15 16 15 15 15 15 16 16 17 20 22 24 21 18 21
3 5 3 6 7 4 6 8 6 3 1 5 5 5 4 6 7 5 10 17 21 27 28 30 30 29 26 21 15 14 16 19 22 23 22 20 19 19 18 18 18 19 19 19 19 19 19 19 22
8 7 3 3 4 4 5 6 6 6 4 5 6 6 6 7 3 4 7 14 19 21 24 26 27 27 26 24 26 26 24 21 17 17 17 18 19 19 21 21 22 22 22 23 22 22 20 20 18
4 6 6 3 3 2 1 2 7 2 5 6 7 7 6 6 6 6 7 14 16 18 22 24 26 26 25 25 25 24 22 18 17 18 19 21 21 21 23 25 25 25 25 24 23 24 25 23 20
5 4 4 3 2 2 6 7 5 4 6 4 4 7 8 7 6 5 10 14 16 18 20 22 25 24 23 23 23 23 22 21 22 23 24 24 25 25 26 27 27 26 27 27 27 27 28 27 26
4 4 0 1 1 5 1 2 8 5 5 8 13 10 8 7 7 6 7 10 14 17 18 20 22 22 21 22 22 22 21 21 22 23 24 26 28 28 28 28 28 28 27 27 27 28 26 27 26
6 7 5 6 4 4 3 6 6 2 6 7 9 11 8 8 7 7 7 11 15 17 17 18 19 20 19 19 20 19 19 19 19 20 20 21 21 22 24 26 26 26 26 26 26 26 26 26 28
5 8 4 4 2 1 3 7 9 4 6 3 9 12 10 8 7 7 8 11 16 16 15 16 17 18 17 17 16 18 18 19 18 18 20 22 22 23 24 24 25 26 26 27 28 26 26 28 27
7 8 2 2 3 4 4 5 5 6 4 2 7 10 8 7 7 6 7 14 16 15 15 15 16 17 15 15 15 15 17 18 19 20 22 22 22 23 24 25 26 27 28 29 29 25 29 27 22
3 3 4 4 4 4 1 5 5 6 5 8 6 6 8 8 7 7 7 13 15 14 13 14 15 14 15 14 14 17 19 19 19 20 21 22 22 23 25 26 28 29 30 31 30 27 25 26 26
5 7 6 4 4 1 3 6 2 6 6 6 8 6 6 6 7 7 10 15 13 13 13 14 13 14 14 13 15 16 18 20 21 21 21 22 24 25 26 28 29 30 29 29 27 26 26 24 27
Wind_Direction
339 340 343 38 57 68 252 258 269 310 315 237 277 231 257 244 183 227 316 182 157 176 179 181 184 190 181 188 177 177 179 184 187 184 198 219 195 188 183 191 258 199 268 263 249 237 242 251 252
338 349 36 76 86 74 265 264 235 259 266 306 249 279 285 269 255 279 252 183 165 175 183 186 187 195 189 186 189 186 188 195 200 196 210 204 191 168 227 267 242 261 259 262 262 247 243 243 260
338 12 75 86 104 174 228 245 300 284 282 242 278 184 236 235 230 228 196 183 185 180 185 186 186 197 193 189 204 193 199 198 211 212 213 211 192 197 257 236 252 256 255 248 268 235 241 245 239
345 22 38 79 217 248 225 315 274 321 319 199 230 282 285 230 189 193 170 176 183 176 185 187 189 198 187 197 203 197 196 204 210 212 224 226 199 198 256 252 252 250 247 250 258 246 245 245 250
30 59 45 31 272 274 270 270 302 303 288 279 217 262 256 246 246 226 175 176 174 174 186 191 195 196 200 205 201 200 202 203 209 227 230 234 220 245 236 228 242 242 249 249 254 258 251 259 262
27 95 49 293 272 280 278 255 274 291 274 294 275 248 255 264 239 183 173 178 179 178 186 194 197 206 211 207 205 206 206 209 215 218 220 208 235 233 224 238 248 253 256 255 260 262 262 262 259
119 90 204 223 260 299 237 337 351 314 280 291 279 249 278 313 201 181 179 190 188 191 197 199 202 212 218 221 218 218 215 215 217 221 224 224 229 238 236 249 252 262 259 262 260 263 271 272 272
113 96 146 237 234 269 293 335 291 315 287 304 222 262 308 356 203 192 191 195 200 203 207 211 209 212 221 226 227 230 228 232 230 227 229 242 249 250 255 259 261 262 265 266 271 269 272 274 276
132 73 204 234 185 246 299 353 295 279 263 308 280 252 284 321 200 196 192 195 204 212 213 218 221 222 224 229 232 235 237 241 248 234 234 247 255 259 260 263 262 267 269 268 270 275 280 280 283
126 152 220 210 201 242 295 278 312 332 317 294 304 262 327 347 198 214 209 208 211 215 220 223 226 229 230 232 236 237 242 245 250 244 243 246 256 263 270 278 278 277 278 277 277 277 276 280 284
172 204 219 252 236 264 265 304 234 277 298 233 283 294 321 271 225 236 236 229 232 233 232 228 230 233 232 236 241 240 245 248 252 251 248 251 259 265 271 276 279 280 281 278 278 280 277 279 284
174 244 214 277 245 292 276 306 292 213 243 254 274 287 288 260 233 233 257 264 259 252 248 240 235 235 235 239 242 247 248 252 253 254 253 255 261 266 270 274 278 281 283 283 282 283 284 283 287
196 262 243 249 278 258 271 253 237 261 259 277 288 289 276 275 267 279 267 273 269 259 259 250 243 239 240 241 243 245 248 253 259 257 259 261 264 268 272 275 279 283 285 286 287 288 287 285 288
203 217 270 284 277 256 247 267 160 251 266 292 297 289 303 300 274 265 272 275 271 274 271 265 255 248 245 245 247 248 250 256 259 262 263 264 268 274 277 280 284 284 285 287 288 289 288 286 287
162 301 301 265 264 260 188 279 235 251 238 284 316 314 308 10 28 355 325 314 304 300 293 276 263 256 249 248 251 252 253 254 260 264 267 269 271 278 282 285 287 287 291 291 289 288 287 286 288
148 105 265 271 308 285 140 275 281 260 231 283 335 333 67 62 42 29 20 5 347 339 349 322 264 254 251 250 252 255 257 258 260 267 273 276 277 281 284 285 287 294 296 295 293 292 291 290 290
137 199 206 301 205 227 183 287 281 6 57 350 319 352 46 65 35 32 33 31 25 23 21 18 343 248 253 255 256 259 262 265 269 272 276 281 284 286 286 286 292 296 297 297 298 297 292 289 287
174 178 207 235 247 210 255 263 276 267 240 302 199 151 82 62 34 38 50 56 59 58 49 44 44 34 246 253 259 262 263 267 274 280 287 293 297 298 295 296 299 302 303 303 305 302 298 287 289
153 167 220 254 254 262 273 274 278 275 262 251 192 140 91 73 36 56 59 61 64 63 61 55 53 49 55 28 310 294 301 304 310 326 327 326 319 314 308 309 312 315 312 311 309 298 295 294 295
147 170 248 286 215 189 303 284 274 266 261 187 168 166 154 102 58 44 59 64 65 66 63 60 57 55 57 65 55 56 57 66 59 56 53 49 48 42 36 23 11 1 345 334 329 321 298 291 299
191 190 224 235 338 307 322 290 309 321 120 107 122 139 139 127 112 90 66 69 68 66 67 67 66 66 66 70 79 86 83 70 62 56 58 53 47 43 36 28 20 14 11 1 352 342 317 298 297
223 194 161 275 23 261 38 286 292 273 208 157 145 144 155 141 143 110 94 74 74 74 78 76 73 71 70 71 73 74 71 68 58 51 46 41 33 27 21 17 12 7 4 -0 355 350 347 335 315
217 147 191 211 208 351 275 297 270 189 217 206 188 171 186 169 147 130 107 97 89 86 83 80 76 71 69 69 69 72 69 62 51 38 31 26 22 18 11 7 1 359 356 352 350 345 341 339 329
154 88 66 56 96 294 227 185 275 217 211 155 171 181 187 170 160 134 113 107 97 94 86 82 77 72 68 67 63 60 55 45 37 27 21 15 10 7 5 0 358 356 353 351 348 343 339 337 333
99 153 245 316 293 231 73 159 251 242 228 190 183 185 184 178 167 150 128 110 102 99 91 84 80 73 68 64 60 55 51 44 37 26 18 11 5 2 359 358 357 355 353 349 345 340 338 335 329
178 173 163 198 202 258 115 236 251 251 286 251 174 160 158 177 176 163 139 123 116 107 95 87 80 73 65 61 58 52 44 39 32 23 16 13 7 1 355 355 354 352 351 347 344 340 337 332 328
192 201 195 101 20 40 237 288 309 356 15 85 152 151 173 177 174 160 133 127 123 108 96 91 84 75 64 59 52 45 35 28 23 17 14 9 5 359 354 354 353 351 349 347 345 340 334 333 330
171 159 127 5 229 247 286 279 243 338 345 145 171 166 165 164 169 149 134 130 117 110 102 89 78 71 62 53 45 37 30 23 16 11 10 6 2 0 358 357 356 354 352 350 347 337 337 335 336
177 169 55 125 137 178 304 272 215 274 293 218 194 174 161 173 177 155 134 130 124 116 100 86 73 64 53 46 37 27 21 17 14 13 10 6 2 1 360 358 356 354 351 349 346 336 338 332 329
165 172 154 145 214 128 147 275 358 288 290 181 161 161 170 186 177 149 139 138 128 109 93 78 69 59 46 39 29 26 19 14 11 9 7 6 3 1 359 356 354 351 346 344 337 334 331 329 325